Satellite: RS-30
Catalog number: 32953
Epoch time:      11223.76523463
Element set:     984
Inclination:      082.5042 deg
RA of node:       128.1802 deg
Eccentricity:    0.0017700
Arg of perigee:   268.1159 deg
Mean anomaly:     091.7893 deg
Mean motion:   12.43014533 rev/day
Decay rate:        1.0e-07 rev/day^2
Epoch rev:           14599
Checksum:              284

Satellite: TACSAT-3
Catalog number: 35001
Epoch time:      11222.89379909
Element set:    0666
Inclination:      040.4530 deg
RA of node:       200.1337 deg
Eccentricity:    0.0022376
Arg of perigee:   260.3300 deg
Mean anomaly:     099.4989 deg
Mean motion:   15.50526577 rev/day
Decay rate:     1.5647e-04 rev/day^2
Epoch rev:           12557
Checksum:              300

Satellite: PHARMSAT
Catalog number: 35002
Epoch time:      11223.97570043
Element set:     620
Inclination:      040.4684 deg
RA of node:       191.6639 deg
Eccentricity:    0.0024401
Arg of perigee:   275.1180 deg
Mean anomaly:     084.6834 deg
Mean motion:   15.49867079 rev/day
Decay rate:     1.1488e-04 rev/day^2
Epoch rev:           12576
Checksum:              297

Satellite: HAWKSAT1
Catalog number: 35003
Epoch time:      11222.88020401
Element set:    0717
Inclination:      040.4518 deg
RA of node:       159.1643 deg
Eccentricity:    0.0018337
Arg of perigee:   287.6357 deg
Mean anomaly:     072.2255 deg
Mean motion:   15.73521340 rev/day
Decay rate:    1.00219e-03 rev/day^2
Epoch rev:           12602
Checksum:              253

Satellite: CP6
Catalog number: 35004
Epoch time:      11223.93663176
Element set:     720
Inclination:      040.4479 deg
RA of node:       138.3817 deg
Eccentricity:    0.0017270
Arg of perigee:   280.3537 deg
Mean anomaly:     079.5212 deg
Mean motion:   15.89205802 rev/day
Decay rate:    2.42589e-03 rev/day^2
Epoch rev:           12633
Checksum:              298

Satellite: METEOR-M
Catalog number: 35865
Epoch time:      11223.74459866
Element set:     629
Inclination:      098.7019 deg
RA of node:       278.1413 deg
Eccentricity:    0.0001661
Arg of perigee:   227.2097 deg
Mean anomaly:     132.8907 deg
Mean motion:   14.21840971 rev/day
Decay rate:       1.76e-06 rev/day^2
Epoch rev:            9848
Checksum:              325

Satellite: RS-38
Catalog number: 35869
Epoch time:      11223.73779015
Element set:     617
Inclination:      098.6987 deg
RA of node:       278.1668 deg
Eccentricity:    0.0003702
Arg of perigee:   230.3462 deg
Mean anomaly:     129.7356 deg
Mean motion:   14.22018414 rev/day
Decay rate:       1.77e-06 rev/day^2
Epoch rev:            9849
Checksum:              336

Satellite: ARISSAT1
Catalog number: 37772
Epoch time:      11223.93587557
Element set:      23
Inclination:      051.6396 deg
RA of node:       240.1260 deg
Eccentricity:    0.0013301
Arg of perigee:   071.4344 deg
Mean anomaly:     000.1165 deg
Mean motion:   15.60854875 rev/day
Decay rate:     2.3451e-04 rev/day^2
Epoch rev:             119
Checksum:              261

/EX


_______________________________________________
Via the Keps mailing list courtesy of AMSAT-NA
http://amsat.org/mailman/listinfo/keps

--- ViaMAIL!/WC v1.60d
 * Origin: Chowdanet (401-724-4410) telnet://chowdanet.com  (1:323/120)